GW4132 Weather Reports


Display with metric or nautical units.
time (UTC)temp
F
wind
direction
speed
MPH
gust
MPH
rain 1hr
in
rain 24hr
in
rain mn
in
humidity
%
barometer
mb
20260503171608 70 111 1.0 3.0 0.00 0.00 0.00 38 1020.6
20260503160108 57 51 0.0 2.0 0.00 0.00 0.00 74 1020.7
20260503090120 48 10 0.0 1.0 0.00 0.00 0.00 78 1021.5
20260503080109 48 11 0.0 1.0 0.00 0.00 0.00 80 1021.7
20260503071606 48 10 0.0 1.0 0.00 0.00 0.00 81 1021.6
20260503054602 49 10 0.0 1.0 0.00 0.00 0.00 81 1021.5
20260503053051 49 10 0.0 2.0 0.00 0.00 0.00 82 1021.6
20260503051557 50 10 0.0 1.0 0.00 0.00 0.00 83 1021.6
20260503044607 51 10 0.0 1.0 0.00 0.00 0.00 80 1021.6
20260503043051 51 11 0.0 2.0 0.00 0.00 0.00 78 1021.3
20260503041550 51 350 0.0 2.0 0.00 0.00 0.00 76 1021.3
20260503040109 52 352 0.0 1.0 0.00 0.00 0.00 72 1020.9
20260503034557 53 352 0.0 1.0 0.00 0.00 0.00 69 1020.9
20260503033101 54 352 0.0 2.0 0.00 0.00 0.00 68 1020.7
20260503031558 55 352 1.0 2.0 0.00 0.00 0.00 68 1020.4
20260503030056 55 352 0.0 2.0 0.00 0.00 0.00 65 1020.2
20260503024554 56 352 0.0 1.0 0.00 0.00 0.00 64 1020.2
20260503023047 57 352 0.0 2.0 0.00 0.00 0.00 62 1020.0
20260503021557 59 352 0.0 2.0 0.00 0.00 0.00 61 1020.0
20260503020058 60 352 1.0 2.0 0.00 0.00 0.00 58 1019.9
20260503014548 62 352 0.0 1.0 0.00 0.00 0.00 56 1020.2
20260503013049 63 352 0.0 2.0 0.00 0.00 0.00 55 1020.0
20260503011614 64 360 1.0 2.0 0.00 0.00 0.00 51 1019.9
20260503010109 65 360 0.0 2.0 0.00 0.00 0.00 46 1020.1
20260503004555 66 36 1.0 2.0 0.00 0.00 0.00 47 1020.1
20260503003053 68 259 0.0 2.0 0.00 0.00 0.00 37 1020.1
20260503001553 69 197 1.0 4.0 0.00 0.00 0.00 45 1020.3
20260503000104 71 142 1.0 3.0 0.00 0.00 0.00 43 1020.3
20260502234600 71 248 1.0 4.0 0.00 0.00 0.00 36 1020.2
20260502233055 71 90 1.0 4.0 0.00 0.00 0.00 43 1020.7
20260502231554 72 170 1.0 5.0 0.00 0.00 0.00 40 1020.8
20260502230028 71 213 1.0 4.0 0.00 0.00 0.00 38 1021.1
20260502224605 71 152 2.0 6.0 0.00 0.00 0.00 39 1021.3
20260502223118 72 201 1.0 5.0 0.00 0.00 0.00 39 1021.4
20260502221723 71 88 1.0 5.0 0.00 0.00 0.00 35 1021.6
20260502220059 71 227 1.0 5.0 0.00 0.00 0.00 34 1021.7
20260502214603 71 206 1.0 4.0 0.00 0.00 0.00 40 1021.6
20260502213053 71 309 2.0 6.0 0.00 0.00 0.00 35 1021.8
20260502211712 70 181 2.0 10.0 0.00 0.00 0.00 39 1021.9
20260502210136 70 156 3.0 6.0 0.00 0.00 0.00 40 1021.6
20260502204758 69 246 3.0 8.0 0.00 0.00 0.00 40 1021.9
20260502203036 67 209 1.0 3.0 0.00 0.00 0.00 47 1021.9
20260502201548 67 334 1.0 5.0 0.00 0.00 0.00 40 1021.7
20260502194545 66 244 2.0 5.0 0.00 0.00 0.00 41 1021.8
20260502193054 65 250 1.0 7.0 0.00 0.00 0.00 43 1021.9
20260502191603 65 21 0.0 2.0 0.00 0.00 0.00 49 1022.0
20260502190057 65 138 0.0 1.0 0.00 0.00 0.00 45 1022.2
20260502184547 65 228 0.0 1.0 0.00 0.00 0.00 47 1022.2
20260502183051 65 205 0.0 5.0 0.00 0.00 0.00 52 1022.2
20260502181835 65 197 1.0 3.0 0.00 0.00 0.00 44 1021.9